Weather History for Ann Arbor, MI

Change the Weather History Date:

Tuesday, October 29, 2013

  Actual Average Record
Temperature  
Mean Temperature 43 °F -  
Max Temperature 52 °F 55 °F 75 °F (1999)
Min Temperature 34 °F 34 °F 19 °F (2005)
Degree Days  
Heating Degree Days 22    
Moisture  
Dew Point 33 °F    
Average Humidity 67    
Maximum Humidity 86    
Minimum Humidity 54    
Precipitation  
Precipitation 0.00 in - - ()
Sea Level Pressure  
Sea Level Pressure 30.37 in    
Wind  
Wind Speed 5 mph (ENE)    
Max Wind Speed 7 mph    
Max Gust Speed -    
Visibility 10 miles    
Events      
Averages and records for this station are not official NWS values.
T = Trace of Precipitation, MM = Missing Value Source: NWS Daily Summary

Daily Weather History Graph

Daily Weather History Graph

Search for Another Location

Airport:

Trip Planner

Search our weather history database for the weather conditions in past years. The results will help you decide how hot, cold, wet, or windy it might be!

Date:

Astronomy

Oct. 29, 2013 Rise Set
Actual Time 8:04 AM EDT 6:32 PM EDT
Civil Twilight 7:35 AM EDT 7:01 PM EDT
Nautical Twilight 7:02 AM EDT 7:33 PM EDT
Astronomical Twilight 6:30 AM EDT 8:06 PM EDT
Moon 2:48 AM EDT (10/29) 3:50 PM EDT (10/29)
Length of Visible Light 11h 25m
Length of Day
10h 27m
Waning Crescent, 25% of the Moon is Illuminated
Oct 29
Waning Crescent
Nov 3
New
Nov 10
First Quarter
Nov 17
Full
Nov 25
Last Quarter

Hourly Weather History & Observations

Time (EDT) Temp. Windchill Dew Point Humidity Pressure Visibility Wind Dir Wind Speed Gust Speed Precip Events Conditions
12:53 AM 36.0 °F 31.1 °F 28.9 °F 76% 30.40 in 10.0 mi NE 5.8 mph - N/A   Clear
1:53 AM 35.1 °F 31.0 °F 28.9 °F 78% 30.40 in 10.0 mi NE 4.6 mph - N/A   Clear
2:53 AM 34.0 °F 31.0 °F 28.9 °F 82% 30.40 in 10.0 mi NNE 3.5 mph - N/A   Partly Cloudy
3:53 AM 37.9 °F 32.7 °F 32.0 °F 79% 30.40 in 10.0 mi NE 6.9 mph - N/A   Overcast
4:50 AM 39.2 °F 34.2 °F 32.0 °F 75% 30.39 in 10.0 mi NE 6.9 mph - N/A   Overcast
4:53 AM 39.9 °F 35.8 °F 32.0 °F 73% 30.40 in 10.0 mi NE 5.8 mph - N/A   Overcast
5:53 AM 39.9 °F 35.8 °F 32.0 °F 73% 30.41 in 10.0 mi NE 5.8 mph - N/A   Overcast
6:53 AM 41.0 °F 38.0 °F 32.0 °F 70% 30.42 in 10.0 mi NE 4.6 mph - N/A   Overcast
7:53 AM 41.0 °F 39.0 °F 32.0 °F 70% 30.41 in 10.0 mi ENE 3.5 mph - N/A   Overcast
8:53 AM 41.0 °F 37.1 °F 30.9 °F 67% 30.43 in 10.0 mi NE 5.8 mph - N/A   Overcast
9:53 AM 42.1 °F 38.4 °F 30.0 °F 62% 30.44 in 10.0 mi ENE 5.8 mph - N/A   Overcast
10:39 AM 42.8 °F 40.1 °F 30.2 °F 61% 30.43 in 10.0 mi ENE 4.6 mph - N/A   Overcast
10:53 AM 44.1 °F 41.5 °F 30.9 °F 60% 30.44 in 10.0 mi East 4.6 mph - N/A   Overcast
11:23 AM 44.6 °F 42.2 °F 32.0 °F 61% 30.42 in 10.0 mi ESE 4.6 mph - N/A   Overcast
11:53 AM 46.0 °F 44.8 °F 32.0 °F 58% 30.43 in 10.0 mi ENE 3.5 mph - N/A   Overcast
12:19 PM 48.2 °F - 33.8 °F 58% 30.40 in 10.0 mi East 5.8 mph - N/A   Scattered Clouds
12:53 PM 48.9 °F - 34.0 °F 56% 30.40 in 10.0 mi East 5.8 mph - N/A   Clear
1:53 PM 48.9 °F - 35.1 °F 59% 30.37 in 10.0 mi East 4.6 mph - N/A   Clear
2:53 PM 51.1 °F - 35.1 °F 54% 30.34 in 10.0 mi East 3.5 mph - N/A   Clear
3:53 PM 51.1 °F - 35.1 °F 54% 30.32 in 10.0 mi ENE 5.8 mph - N/A   Scattered Clouds
4:53 PM 52.0 °F - 37.0 °F 57% 30.32 in 10.0 mi ESE 5.8 mph - N/A   Overcast
5:53 PM 50.0 °F - 37.0 °F 61% 30.31 in 10.0 mi ESE 5.8 mph - N/A   Overcast
6:53 PM 48.0 °F - 36.0 °F 63% 30.30 in 10.0 mi East 4.6 mph - N/A   Overcast
7:53 PM 46.0 °F 43.9 °F 35.1 °F 66% 30.30 in 10.0 mi East 4.6 mph - N/A   Mostly Cloudy
8:53 PM 45.0 °F 42.6 °F 36.0 °F 71% 30.30 in 10.0 mi East 4.6 mph - N/A   Clear
9:53 PM 43.0 °F 41.3 °F 35.1 °F 74% 30.28 in 10.0 mi East 3.5 mph - N/A   Clear
10:53 PM 42.1 °F - 35.1 °F 76% 30.27 in 10.0 mi Calm Calm - N/A   Clear
11:53 PM 37.9 °F - 34.0 °F 86% 30.25 in 10.0 mi Calm Calm - N/A   Clear